sat.trackr.live / text

‹ back to catalog

STARLINK-30818

NORAD 58217 · 2023-170M

PAYLOAD ACTIVE UNKNOWN

§ Identity

Operator
Country
US
Launch date
2023-11-03
Launch site
AFETR
Launch vehicle
Mass (kg)
RCS (m²)

Purposes: comms

External: N2YO · Heavens-Above · Gunter

§ Orbital elements

Epoch: 2026-05-25T04:59:29.522976Z

Period
94.27 min
Inclination
43.0015°
Eccentricity
0.0001181
Mean motion
15.27574053 rev/d
Perigee alt
482.3 km
Apogee alt
483.9 km
Semi-major
6,861.2 km
B*
1.9666e-4
RAAN
121.9443°
Arg perigee
250.6284°
Mean anomaly
109.4440°
Rev number
14,200

§ Raw data

STARLINK-308181 58217U 23170M   26145.20798059  .00005152  00000+0  19666-3 0  99972 58217  43.0015 121.9443 0001181 250.6284 109.4440 15.27574053142008

JSON: /api/v1/satellites/58217 · /tle

For live sub-satellite position, see the globe view (requires WebGL).

§ Visibility from observer

Set your observer location to see the next 7 days of passes ≥ 10°. The values pass through the URL so the page stays shareable.

No JS? Fill the form by hand. The geolocation button needs JavaScript.